When you browse on this site, cookies collect data to enhance your experience and personalize the content and advertising you see.
Visit our Privacy Policy to learn more. By continuing to use the site, you agree to this use of cookies and data.
  • In Romania
  • List of Countries
  • For 7 days
  • Water Temperature
  • Satellite Maps
  • Weather Map
  • Weather Widgets
  • user-avatar
    Login

    Hourly Weather Matveycevo

    Today, 26 April, Friday

    Time Temperature Precipitation Wind Pressure Humidity
    00:00 +8°C° 0 mm 2 mps 750 mmHg 71%
    01:00 +8°C° 0 mm 2 mps 750 mmHg 73%
    02:00 +7°C° 0 mm 2 mps 750 mmHg 75%
    03:00 +7°C° 0 mm 2 mps 750 mmHg 76%
    04:00 +7°C° 0 mm 2 mps 750 mmHg 77%
    05:00 +6°C° 0 mm 2 mps 750 mmHg 79%
    06:00 +8°C° 0 mm 2 mps 750 mmHg 72%
    07:00 +10°C° 0 mm 2 mps 750 mmHg 65%
    08:00 +13°C° 0 mm 2 mps 750 mmHg 59%
    09:00 +14°C° 0 mm 2 mps 750 mmHg 54%
    10:00 +16°C° 0 mm 2 mps 750 mmHg 49%
    11:00 +17°C° 0 mm 2 mps 750 mmHg 44%
    12:00 +18°C° 0 mm 2 mps 749 mmHg 42%
    13:00 +20°C° 0 mm 1 mps 749 mmHg 40%
    14:00 +21°C° 0 mm 1 mps 749 mmHg 38%
    15:00 +20°C° 0 mm 1 mps 748 mmHg 39%
    16:00 +20°C° 0 mm 1 mps 748 mmHg 40%
    17:00 +20°C° 0 mm 1 mps 747 mmHg 41%
    18:00 +18°C° 0 mm 1 mps 747 mmHg 49%
    19:00 +14°C° 0 mm 2 mps 747 mmHg 57%
    20:00 +12°C° 0 mm 2 mps 746 mmHg 65%
    21:00 +10°C° 0 mm 2 mps 746 mmHg 66%
    22:00 +10°C° 0 mm 2 mps 746 mmHg 68%
    23:00 +9°C° 0 mm 2 mps 745 mmHg 69%

    Tomorrow, 27 April, Saturday

    Time Temperature Precipitation Wind Pressure Humidity
    00:00 +9°C° 0.1 mm 2 mps 745 mmHg 72%
    01:00 +10°C° 0.1 mm 2 mps 745 mmHg 74%
    02:00 +10°C° 0.1 mm 2 mps 745 mmHg 76%
    03:00 +10°C° 0 mm 2 mps 744 mmHg 78%
    04:00 +10°C° 0 mm 2 mps 744 mmHg 80%
    05:00 +10°C° 0 mm 2 mps 743 mmHg 81%
    06:00 +13°C° 0 mm 2 mps 743 mmHg 75%
    07:00 +14°C° 0 mm 2 mps 743 mmHg 69%
    08:00 +16°C° 0 mm 2 mps 742 mmHg 64%
    09:00 +17°C° 0 mm 3 mps 742 mmHg 59%
    10:00 +18°C° 0 mm 3 mps 741 mmHg 54%
    11:00 +19°C° 0 mm 3 mps 741 mmHg 49%
    12:00 +19°C° 0.1 mm 3 mps 741 mmHg 48%
    13:00 +20°C° 0.1 mm 4 mps 740 mmHg 47%
    14:00 +20°C° 0.1 mm 4 mps 740 mmHg 46%
    15:00 +18°C° 0.2 mm 4 mps 740 mmHg 54%
    16:00 +15°C° 0.2 mm 4 mps 740 mmHg 62%
    17:00 +14°C° 0.2 mm 4 mps 740 mmHg 70%
    18:00 +12°C° 0 mm 3 mps 740 mmHg 74%
    19:00 +11°C° 0 mm 3 mps 741 mmHg 77%
    20:00 +9°C° 0 mm 3 mps 741 mmHg 81%
    21:00 +8°C° 0 mm 3 mps 742 mmHg 77%
    22:00 +6°C° 0 mm 4 mps 743 mmHg 73%
    23:00 +5°C° 0 mm 5 mps 744 mmHg 70%

    Day after tomorrow, 28 April, Sunday

    Time Temperature Precipitation Wind Pressure Humidity
    00:00 +3°C° 0 mm 5 mps 744 mmHg 68%
    01:00 +2°C° 0 mm 5 mps 745 mmHg 67%
    02:00 +1°C° 0 mm 5 mps 745 mmHg 66%
    03:00 0°C° 0 mm 5 mps 746 mmHg 65%
    04:00 -1°C° 0 mm 5 mps 746 mmHg 65%
    05:00 -1°C° 0 mm 4 mps 747 mmHg 64%
    06:00 -1°C° 0 mm 5 mps 747 mmHg 57%
    07:00 0°C° 0 mm 5 mps 748 mmHg 49%
    08:00 +1°C° 0 mm 5 mps 748 mmHg 42%
    09:00 +2°C° 0 mm 5 mps 749 mmHg 40%
    10:00 +3°C° 0 mm 5 mps 749 mmHg 38%
    11:00 +5°C° 0 mm 4 mps 749 mmHg 36%
    12:00 +6°C° 0 mm 4 mps 749 mmHg 36%
    13:00 +6°C° 0 mm 4 mps 749 mmHg 37%
    14:00 +6°C° 0 mm 4 mps 750 mmHg 37%
    15:00 +6°C° 0 mm 4 mps 750 mmHg 36%
    16:00 +6°C° 0 mm 4 mps 750 mmHg 36%
    17:00 +5°C° 0 mm 4 mps 750 mmHg 35%
    18:00 +4°C° 0 mm 4 mps 750 mmHg 39%
    19:00 +3°C° 0 mm 3 mps 751 mmHg 43%
    20:00 +2°C° 0 mm 2 mps 751 mmHg 47%
    21:00 +1°C° 0 mm 2 mps 752 mmHg 51%
    22:00 -1°C° 0 mm 2 mps 752 mmHg 54%
    23:00 -1°C° 0 mm 2 mps 752 mmHg 58%

    29 April, Monday

    Time Temperature Precipitation Wind Pressure Humidity
    00:00 -2°C° 0 mm 2 mps 753 mmHg 60%
    01:00 -2°C° 0 mm 2 mps 753 mmHg 62%
    02:00 -1°C° 0 mm 1 mps 753 mmHg 64%
    03:00 -1°C° 0 mm 1 mps 753 mmHg 62%
    04:00 -1°C° 0 mm 1 mps 753 mmHg 60%
    05:00 0°C° 0 mm 1 mps 754 mmHg 58%
    06:00 +1°C° 0 mm 1 mps 754 mmHg 50%
    07:00 +2°C° 0 mm 2 mps 754 mmHg 42%
    08:00 +4°C° 0 mm 2 mps 754 mmHg 35%
    09:00 +5°C° 0 mm 2 mps 753 mmHg 32%
    10:00 +7°C° 0 mm 1 mps 753 mmHg 30%
    11:00 +9°C° 0 mm 1 mps 753 mmHg 28%
    12:00 +9°C° 0 mm 1 mps 753 mmHg 27%
    13:00 +10°C° 0 mm 1 mps 752 mmHg 26%
    14:00 +10°C° 0 mm 1 mps 752 mmHg 26%
    15:00 +10°C° 0 mm 1 mps 751 mmHg 27%
    16:00 +10°C° 0 mm 1 mps 751 mmHg 27%
    17:00 +9°C° 0 mm 1 mps 750 mmHg 28%
    18:00 +7°C° 0 mm 1 mps 750 mmHg 33%
    19:00 +6°C° 0 mm 1 mps 750 mmHg 39%
    20:00 +3°C° 0 mm 0 mps 750 mmHg 44%
    21:00 +3°C° 0 mm 1 mps 750 mmHg 47%
    22:00 +3°C° 0 mm 1 mps 750 mmHg 49%
    23:00 +2°C° 0 mm 2 mps 750 mmHg 52%

    30 April, Tuesday

    Time Temperature Precipitation Wind Pressure Humidity
    00:00 +1°C° 0 mm 2 mps 750 mmHg 54%
    01:00 +1°C° 0 mm 2 mps 749 mmHg 56%
    02:00 +1°C° 0 mm 2 mps 749 mmHg 58%
    03:00 +2°C° 0 mm 1 mps 749 mmHg 58%
    04:00 +2°C° 0 mm 1 mps 749 mmHg 58%
    05:00 +2°C° 0 mm 1 mps 749 mmHg 58%
    06:00 +4°C° 0 mm 1 mps 749 mmHg 51%
    07:00 +6°C° 0 mm 1 mps 748 mmHg 45%
    08:00 +9°C° 0 mm 1 mps 748 mmHg 38%
    09:00 +10°C° 0 mm 1 mps 748 mmHg 35%
    10:00 +11°C° 0 mm 1 mps 748 mmHg 32%
    11:00 +12°C° 0 mm 1 mps 747 mmHg 29%
    12:00 +13°C° 0 mm 1 mps 747 mmHg 29%
    13:00 +13°C° 0 mm 1 mps 747 mmHg 28%
    14:00 +13°C° 0 mm 1 mps 746 mmHg 28%
    15:00 +13°C° 0 mm 1 mps 746 mmHg 29%
    16:00 +12°C° 0 mm 1 mps 746 mmHg 31%
    17:00 +11°C° 0 mm 1 mps 745 mmHg 32%
    18:00 +10°C° 0 mm 1 mps 745 mmHg 36%
    19:00 +9°C° 0 mm 1 mps 745 mmHg 40%
    20:00 +7°C° 0 mm 1 mps 745 mmHg 44%
    21:00 +7°C° 0 mm 1 mps 745 mmHg 46%
    22:00 +6°C° 0 mm 1 mps 745 mmHg 49%
    23:00 +6°C° 0 mm 1 mps 745 mmHg 51%

    1 May, Wednesday

    Time Temperature Precipitation Wind Pressure Humidity
    00:00 +5°C° 0 mm 1 mps 745 mmHg 54%
    01:00 +4°C° 0 mm 1 mps 744 mmHg 56%
    02:00 +4°C° 0 mm 1 mps 744 mmHg 59%
    03:00 +3°C° 0 mm 2 mps 744 mmHg 60%
    04:00 +3°C° 0 mm 2 mps 744 mmHg 61%
    05:00 +3°C° 0 mm 2 mps 743 mmHg 62%
    06:00 +5°C° 0 mm 2 mps 743 mmHg 56%
    07:00 +7°C° 0 mm 2 mps 743 mmHg 49%
    08:00 +9°C° 0 mm 2 mps 743 mmHg 42%
    09:00 +10°C° 0 mm 3 mps 742 mmHg 40%
    10:00 +11°C° 0 mm 3 mps 742 mmHg 37%
    11:00 +12°C° 0 mm 4 mps 741 mmHg 34%
    12:00 +13°C° 0 mm 4 mps 741 mmHg 34%
    13:00 +13°C° 0 mm 4 mps 740 mmHg 33%
    14:00 +14°C° 0 mm 4 mps 739 mmHg 33%
    15:00 +13°C° 0 mm 4 mps 739 mmHg 34%
    16:00 +13°C° 0 mm 4 mps 738 mmHg 35%
    17:00 +13°C° 0 mm 4 mps 738 mmHg 36%
    18:00 +11°C° 0 mm 4 mps 737 mmHg 41%
    19:00 +10°C° 0 mm 4 mps 737 mmHg 45%
    20:00 +8°C° 0 mm 3 mps 737 mmHg 50%
    21:00 +8°C° 0 mm 3 mps 736 mmHg 52%
    22:00 +6°C° 0 mm 4 mps 736 mmHg 54%
    23:00 +6°C° 0 mm 4 mps 736 mmHg 55%
    Show more